Temp
83 82 82 82 81 81 78 75 75 74 74 74 75 75 75 75 75 76 76 75 75 79 79 77 78 81 76 78 74 74 74 75 74 74 74 74 74 74 74 73 73 72 73 73 73 73 73 73 73 73 73 74 73 81 85 85 85 85 85 84 82 81
83 83 82 82 82 81 79 78 81 79 80 78 76 76 78 80 78 80 76 78 79 79 80 78 78 77 78 76 76 74 74 74 74 73 73 73 73 73 73 73 72 72 72 73 73 79 77 74 73 73 73 73 78 86 84 85 86 85 85 83 81 77
83 83 82 82 82 82 81 82 82 82 81 78 79 79 81 78 82 81 81 81 78 79 78 73 72 77 77 74 76 74 74 74 74 73 73 73 73 72 72 72 72 72 71 71 77 81 82 82 79 74 74 77 86 84 84 84 85 85 83 81 81 74
84 83 83 83 82 83 82 82 83 81 81 80 79 79 77 79 80 81 78 78 77 77 71 74 74 74 74 76 76 74 73 74 74 73 73 75 73 72 71 70 71 71 72 77 82 80 86 84 82 81 83 85 85 84 85 85 88 85 83 83 83 73
83 83 82 82 82 83 82 83 83 82 81 79 77 75 76 79 80 77 75 75 77 77 76 75 74 74 76 78 80 79 78 78 77 77 74 78 77 77 78 80 77 77 80 81 84 84 85 84 84 85 84 85 84 84 85 85 85 85 84 82 78 73
83 82 82 82 82 82 80 82 82 82 82 80 73 72 71 77 72 74 71 75 76 75 77 73 72 73 77 82 81 81 81 79 78 77 77 76 77 77 80 83 83 83 82 83 84 84 84 84 84 84 85 84 83 83 86 86 84 81 83 82 77 73
81 81 81 82 81 82 82 83 82 83 82 81 77 73 75 71 74 73 71 72 72 72 71 77 78 80 80 82 81 82 81 80 80 79 77 77 77 79 81 83 84 82 80 83 86 85 85 85 85 87 86 86 85 85 84 85 85 83 83 82 77 72
82 80 80 80 81 81 81 81 81 76 80 79 80 79 74 73 72 70 69 71 71 72 72 78 79 79 80 81 81 80 80 80 79 79 78 79 79 82 83 84 82 81 82 85 86 85 86 86 85 86 86 85 84 84 84 85 84 83 83 82 80 74
82 80 80 79 80 80 80 80 80 80 80 76 77 76 76 71 72 72 74 75 79 74 72 78 79 80 82 80 79 78 78 78 77 77 79 81 83 81 81 83 82 83 84 85 85 84 86 86 85 85 85 85 85 85 83 83 83 84 84 81 80 75
81 81 80 78 78 77 78 77 77 77 73 73 73 73 73 76 73 72 71 72 75 78 78 78 79 81 81 78 78 78 78 78 77 78 79 79 81 81 81 82 83 85 87 85 85 85 85 85 86 85 85 85 84 84 83 84 84 85 84 82 80 76
79 78 79 77 75 74 75 75 75 74 72 71 72 71 69 71 73 70 69 68 70 76 78 79 79 80 79 78 78 77 76 77 77 78 78 78 78 79 82 83 84 85 85 86 85 85 86 83 84 86 85 86 84 83 83 83 84 84 85 83 81 77
77 76 76 77 75 74 74 75 75 75 70 71 70 71 69 69 71 71 72 71 71 72 74 75 76 78 78 78 78 77 76 75 75 77 80 79 78 80 82 83 84 83 83 84 84 84 83 82 83 85 85 84 84 83 83 83 82 82 84 83 82 81
75 73 73 74 75 76 72 72 73 73 72 71 71 69 68 69 71 71 74 73 71 70 70 71 73 76 78 78 78 76 75 75 75 76 76 77 78 80 81 80 80 81 81 82 82 82 83 81 81 82 83 83 82 83 83 84 82 83 83 82 82 82
72 72 73 73 73 71 71 70 70 72 72 72 71 69 68 69 71 76 71 73 73 74 74 74 76 75 76 76 75 75 74 75 76 75 76 77 79 80 80 80 79 81 80 81 80 81 81 80 81 83 81 81 81 80 81 82 82 81 81 82 80 79
70 72 72 72 72 73 70 70 72 76 75 75 74 74 71 69 69 71 73 75 75 72 73 74 75 74 73 74 73 74 74 75 76 76 78 79 80 79 80 80 82 80 79 80 81 80 79 78 78 77 77 79 78 79 79 79 80 81 81 79 77 77
71 71 73 74 74 72 71 72 73 74 74 75 73 72 69 70 69 70 71 76 76 74 72 75 75 73 68 69 73 75 75 74 75 77 79 78 78 79 80 79 79 78 77 78 79 78 78 77 75 74 75 76 77 77 78 79 78 78 78 77 77 76
72 71 71 71 70 69 68 70 73 73 73 73 73 73 71 70 69 68 69 73 76 75 75 76 74 71 70 70 76 76 75 74 76 78 78 77 78 80 78 77 77 78 78 75 76 75 75 75 74 73 74 75 75 74 75 76 77 76 76 76 75 77
71 73 71 68 68 69 68 70 72 73 71 73 75 76 71 69 71 70 73 76 74 74 75 76 75 73 72 75 75 75 75 75 77 77 77 78 78 80 79 77 76 77 78 77 75 74 72 73 74 74 74 75 73 73 72 74 76 75 76 76 76 77
68 70 72 68 68 70 71 70 70 72 71 70 71 74 69 69 71 74 74 72 73 73 75 76 75 74 72 72 74 74 76 76 77 78 77 77 78 78 77 77 76 75 76 77 76 73 72 73 75 75 75 74 75 74 75 76 77 78 77 77 77 78
67 69 71 70 68 67 69 68 67 68 67 68 67 72 77 76 71 69 73 71 69 70 75 72 70 71 68 73 77 76 75 76 77 78 77 76 76 77 76 75 76 75 74 75 74 67 71 74 74 73 71 72 72 72 73 73 76 76 75 76 77 78
68 69 67 70 69 69 68 66 68 70 68 67 69 75 76 77 77 77 78 80 79 73 74 73 71 69 74 76 76 76 75 76 78 79 77 76 76 76 76 76 76 76 74 72 72 69 72 75 71 67 67 64 65 67 69 70 73 74 74 76 78 77
68 67 66 68 69 69 72 72 70 72 71 69 75 75 76 76 76 78 78 78 77 75 72 74 74 76 77 77 76 76 76 76 77 78 77 77 77 76 76 75 75 74 76 73 71 73 73 73 70 65 63 61 64 67 67 66 73 75 76 78 77 76
68 67 66 68 67 67 69 71 74 73 67 76 80 79 81 79 80 80 77 78 76 77 77 78 77 77 76 77 76 75 76 76 77 77 76 76 76 75 75 75 75 74 73 75 74 74 71 73 70 71 69 65 60 59 63 68 73 74 76 76 77 78
68 66 67 69 69 68 68 70 74 74 73 77 78 78 78 78 79 79 77 77 77 77 78 78 79 78 78 77 75 75 76 76 77 77 76 75 75 75 75 75 75 75 74 71 72 70 71 73 74 69 60 63 62 63 60 64 68 71 76 76 77 77
69 67 70 69 69 68 69 71 72 73 75 75 77 77 77 77 77 78 78 77 78 78 78 77 78 79 80 77 76 76 75 76 76 76 76 76 76 75 76 76 76 75 75 71 71 69 70 74 71 70 66 63 60 61 64 66 69 68 73 74 75 76
69 69 69 71 71 69 69 70 70 69 70 72 73 73 73 74 75 76 78 78 78 78 78 76 78 79 80 77 75 75 76 76 75 75 75 76 78 77 77 78 77 76 75 75 74 70 69 71 73 70 69 71 70 64 63 68 66 63 71 74 75 76
70 70 72 72 72 71 69 69 72 73 74 74 74 75 77 77 77 78 78 76 77 76 78 77 77 78 78 78 77 76 76 76 75 75 75 75 76 77 79 81 80 78 76 74 70 66 67 68 70 71 74 74 73 70 74 69 64 66 64 68 73 71
71 71 72 72 71 73 71 72 73 75 76 76 76 75 76 76 77 77 76 75 76 75 76 76 76 77 78 78 77 76 76 75 75 76 75 76 76 78 79 80 77 77 76 76 71 66 67 68 63 64 73 73 74 76 75 75 77 72 68 64 64 70
69 70 71 71 71 73 73 75 75 76 75 78 78 77 77 76 75 75 73 74 74 76 75 76 77 77 77 78 76 76 76 76 75 76 76 77 77 79 77 76 75 75 74 74 71 70 69 68 67 69 71 72 75 76 75 76 73 69 71 67 66 66
69 70 71 71 72 73 75 76 76 76 75 76 77 77 77 74 74 74 73 74 75 75 76 76 77 78 78 79 77 77 76 76 75 76 76 77 77 76 76 76 75 75 74 74 73 72 71 72 74 71 73 69 73 74 74 74 75 75 75 74 68 69
71 71 71 70 72 73 75 76 76 76 75 75 75 75 75 74 75 74 73 73 74 76 77 77 77 76 77 78 77 77 76 76 76 76 76 78 76 77 76 75 75 74 74 73 73 73 73 74 74 75 68 70 70 73 71 68 72 74 74 71 70 69
70 70 70 72 73 74 76 76 77 77 76 76 76 76 74 74 75 76 75 75 76 76 76 77 76 76 76 77 76 77 75 75 76 75 76 78 78 78 77 77 76 74 74 73 74 73 73 73 74 75 74 67 68 68 67 64 65 73 74 72 71 70
69 70 71 72 73 75 75 76 77 77 77 77 76 77 76 76 76 76 76 76 76 76 76 75 76 76 76 76 77 76 76 75 74 75 75 76 76 78 76 76 75 74 74 73 74 74 74 73 73 72 69 71 71 72 68 71 66 67 74 73 73 70
69 71 72 73 74 75 75 76 77 77 77 77 77 77 77 77 77 78 78 76 77 77 77 76 76 76 77 78 78 77 76 76 77 76 75 75 75 76 76 77 74 74 74 74 74 73 73 73 72 72 67 66 70 72 74 76 72 74 73 74 73 72
70 71 72 74 74 75 76 76 77 78 78 78 78 77 78 78 78 78 78 77 77 78 77 77 77 77 78 77 77 77 76 76 77 76 76 76 76 76 75 76 74 73 74 76 75 74 74 73 72 71 66 65 66 70 72 74 70 78 80 77 76 73
73 72 73 74 75 75 76 76 77 77 77 77 78 78 78 79 78 78 78 78 77 77 78 78 78 77 77 77 76 77 77 77 77 77 76 76 76 76 74 75 74 73 73 76 74 73 74 73 71 70 68 65 66 70 73 73 77 80 81 79 77 76
74 75 75 76 76 76 76 76 76 77 77 77 77 77 77 77 77 77 77 77 77 77 77 77 76 77 76 77 77 77 78 77 76 76 76 76 76 76 76 75 73 72 71 75 75 76 72 72 71 73 72 73 67 68 74 74 80 80 77 76 78 77
MSLP
1014.63 1014.83 1015.07 1015.31 1015.55 1015.87 1016.23 1016.51 1016.67 1016.83 1016.91 1017.03 1017.11 1017.23 1017.39 1017.51 1017.59 1017.67 1017.67 1017.75 1017.83 1017.87 1017.91 1018.15 1018.35 1018.39 1018.71 1018.87 1019.15 1019.39 1019.51 1019.71 1019.91 1020.11 1020.27 1020.39 1020.47 1020.59 1020.63 1020.63 1020.67 1020.67 1020.63 1020.67 1020.71 1020.79 1020.83 1020.95 1021.07 1021.19 1021.27 1021.19 1020.79 1020.31 1020.27 1020.19 1020.19 1020.23 1020.35 1020.71 1021.11 1021.59
1014.63 1014.79 1014.99 1015.19 1015.47 1015.79 1016.19 1016.39 1016.43 1016.67 1016.83 1016.99 1017.15 1017.27 1017.39 1017.35 1017.43 1017.39 1017.63 1017.63 1017.67 1017.75 1017.83 1018.27 1018.47 1018.63 1018.63 1018.99 1019.19 1019.39 1019.55 1019.75 1019.99 1020.19 1020.35 1020.43 1020.47 1020.51 1020.55 1020.67 1020.75 1020.83 1020.83 1020.79 1020.71 1020.63 1020.83 1021.03 1021.15 1021.23 1021.27 1020.99 1020.67 1020.27 1020.43 1020.27 1020.19 1020.47 1020.63 1021.03 1021.39 1021.95
1014.59 1014.75 1015.07 1015.31 1015.51 1015.75 1016.07 1016.11 1016.27 1016.47 1016.67 1016.95 1017.07 1017.23 1017.15 1017.51 1017.19 1017.31 1017.35 1017.47 1017.59 1017.75 1017.99 1018.91 1019.07 1018.63 1018.75 1019.15 1019.19 1019.39 1019.55 1019.79 1020.03 1020.23 1020.39 1020.51 1020.63 1020.75 1020.71 1020.75 1020.83 1020.83 1020.87 1020.91 1020.63 1020.35 1020.39 1020.55 1020.91 1021.27 1021.19 1020.95 1020.35 1020.43 1020.55 1020.47 1020.39 1020.43 1020.83 1021.27 1021.59 1022.15
1014.55 1014.83 1015.07 1015.31 1015.51 1015.67 1015.87 1015.99 1016.07 1016.31 1016.51 1016.71 1017.03 1017.27 1017.39 1017.15 1017.07 1017.03 1017.43 1017.59 1017.71 1018.03 1018.67 1018.43 1018.67 1018.87 1018.99 1019.19 1019.27 1019.47 1019.71 1019.95 1020.11 1020.27 1020.39 1020.47 1020.71 1020.83 1020.87 1020.87 1020.91 1020.91 1020.91 1020.63 1020.23 1020.47 1020.11 1020.23 1020.51 1020.71 1020.63 1020.43 1020.59 1020.67 1020.59 1020.43 1020.27 1020.59 1020.87 1021.27 1021.67 1022.27
1014.59 1014.91 1015.15 1015.39 1015.59 1015.71 1015.79 1015.87 1016.03 1016.23 1016.35 1016.75 1017.19 1017.43 1017.43 1017.15 1016.95 1017.19 1017.59 1017.83 1017.83 1017.91 1018.35 1018.59 1018.83 1018.99 1018.95 1018.95 1018.91 1019.23 1019.51 1019.71 1019.99 1020.31 1020.55 1020.43 1020.43 1020.63 1020.51 1020.47 1020.79 1020.79 1020.55 1020.43 1020.15 1020.07 1020.03 1020.27 1020.35 1020.39 1020.47 1020.43 1020.67 1020.67 1020.59 1020.55 1020.67 1020.87 1021.07 1021.51 1022.15 1022.47
1014.79 1015.03 1015.23 1015.47 1015.55 1015.75 1015.91 1015.91 1016.07 1016.15 1016.23 1016.59 1017.31 1017.55 1017.67 1017.15 1017.43 1017.39 1017.99 1018.03 1017.95 1018.07 1018.07 1018.79 1019.07 1019.15 1018.87 1018.55 1018.79 1018.99 1019.23 1019.51 1019.87 1020.23 1020.31 1020.51 1020.51 1020.55 1020.31 1020.15 1020.19 1020.27 1020.35 1020.11 1020.07 1020.03 1020.07 1020.23 1020.39 1020.39 1020.39 1020.55 1020.75 1020.79 1020.59 1020.71 1020.99 1021.31 1021.35 1021.71 1022.31 1022.51
1014.95 1015.15 1015.35 1015.39 1015.67 1015.79 1015.87 1015.83 1015.99 1016.07 1016.27 1016.35 1016.71 1017.47 1017.27 1017.63 1017.43 1017.59 1018.15 1018.31 1018.23 1018.51 1018.67 1018.23 1018.23 1018.31 1018.59 1018.55 1018.83 1018.99 1019.27 1019.51 1019.71 1019.95 1020.23 1020.39 1020.51 1020.35 1020.19 1019.99 1019.95 1020.19 1020.35 1020.11 1019.95 1020.03 1020.11 1020.19 1020.23 1020.27 1020.39 1020.55 1020.67 1020.71 1020.79 1020.87 1021.07 1021.35 1021.47 1021.67 1022.23 1022.63
1014.83 1015.23 1015.51 1015.55 1015.71 1015.83 1015.83 1015.95 1016.07 1016.79 1016.39 1016.47 1016.55 1016.67 1017.11 1017.31 1017.67 1018.15 1018.07 1018.31 1018.43 1018.59 1018.51 1018.03 1018.23 1018.55 1018.67 1018.63 1018.87 1019.11 1019.31 1019.59 1019.79 1019.87 1019.99 1019.99 1020.15 1020.03 1019.91 1019.83 1020.11 1020.31 1020.23 1019.95 1019.95 1020.07 1020.07 1020.23 1020.31 1020.23 1020.43 1020.63 1020.79 1020.79 1020.87 1020.91 1021.15 1021.35 1021.47 1021.63 1022.07 1022.59
1014.99 1015.35 1015.47 1015.59 1015.79 1015.83 1015.99 1016.15 1016.31 1016.43 1016.43 1016.99 1016.99 1016.91 1016.87 1017.39 1017.43 1017.79 1017.83 1017.87 1017.55 1018.07 1018.43 1018.07 1018.31 1018.47 1018.47 1018.87 1019.15 1019.35 1019.51 1019.75 1019.99 1020.07 1019.83 1019.75 1019.71 1019.95 1019.95 1019.91 1020.07 1020.07 1019.83 1019.79 1019.91 1020.07 1020.07 1020.23 1020.31 1020.39 1020.55 1020.75 1020.79 1020.91 1021.07 1021.15 1021.23 1021.31 1021.39 1021.83 1022.11 1022.55
1014.95 1015.15 1015.35 1015.79 1015.87 1016.07 1016.19 1016.47 1016.63 1016.71 1017.03 1017.31 1017.43 1017.35 1017.23 1017.11 1017.31 1017.71 1018.03 1018.03 1017.95 1017.79 1017.95 1018.07 1018.35 1018.35 1018.71 1019.23 1019.35 1019.51 1019.67 1019.83 1019.99 1019.95 1019.83 1019.95 1019.83 1019.91 1020.03 1019.99 1019.91 1019.75 1019.67 1019.83 1019.87 1019.95 1020.11 1020.31 1020.51 1020.51 1020.59 1020.75 1020.91 1020.99 1021.11 1021.15 1021.23 1021.23 1021.47 1021.71 1022.07 1022.51
1014.99 1015.23 1015.43 1015.87 1016.07 1016.39 1016.51 1016.71 1016.83 1017.03 1017.39 1017.67 1017.67 1017.67 1017.75 1017.59 1017.51 1017.87 1018.23 1018.75 1018.55 1018.03 1017.99 1018.19 1018.39 1018.51 1018.91 1019.31 1019.51 1019.75 1019.95 1019.91 1019.99 1019.91 1019.87 1020.03 1019.99 1019.99 1019.83 1019.79 1019.71 1019.63 1019.67 1019.63 1019.83 1019.95 1020.03 1020.39 1020.43 1020.47 1020.75 1020.75 1020.99 1021.07 1021.15 1021.19 1021.23 1021.31 1021.39 1021.59 1022.03 1022.55
1015.15 1015.39 1015.67 1015.79 1016.11 1016.51 1016.71 1016.83 1017.03 1017.11 1017.75 1017.91 1017.95 1017.79 1017.71 1017.71 1017.75 1017.99 1018.07 1018.47 1018.67 1018.39 1018.35 1018.43 1018.63 1018.87 1019.07 1019.39 1019.55 1019.79 1019.95 1020.07 1020.15 1020.03 1019.83 1019.91 1020.11 1019.99 1019.79 1019.75 1019.75 1019.75 1019.71 1019.71 1019.95 1019.95 1020.03 1020.35 1020.43 1020.39 1020.67 1020.99 1021.07 1021.19 1021.27 1021.31 1021.51 1021.59 1021.55 1021.67 1021.79 1022.15
1015.31 1015.55 1015.55 1015.71 1016.11 1016.31 1016.83 1017.03 1017.11 1017.39 1017.67 1017.87 1017.87 1017.95 1018.07 1017.95 1017.95 1018.27 1018.15 1018.27 1018.39 1018.35 1018.47 1018.71 1018.87 1019.07 1019.27 1019.43 1019.63 1019.83 1020.07 1020.07 1020.11 1020.11 1020.03 1020.03 1020.07 1020.03 1020.03 1020.15 1020.19 1020.07 1020.11 1020.11 1020.15 1020.31 1020.27 1020.43 1020.55 1020.59 1020.75 1021.27 1021.31 1021.35 1021.35 1021.31 1021.47 1021.51 1021.71 1021.79 1021.83 1021.95
1015.47 1015.55 1015.67 1016.03 1016.35 1016.71 1017.23 1017.39 1017.59 1017.67 1017.75 1017.79 1017.87 1018.03 1018.11 1017.99 1018.03 1017.87 1018.43 1018.27 1018.47 1018.39 1018.47 1018.67 1018.91 1019.23 1019.39 1019.63 1019.83 1019.91 1020.03 1020.07 1020.07 1020.15 1020.07 1020.03 1020.07 1020.11 1020.19 1020.27 1020.31 1020.19 1020.39 1020.35 1020.51 1020.55 1020.59 1020.71 1020.75 1020.75 1021.15 1021.43 1021.47 1021.63 1021.47 1021.59 1021.59 1021.75 1021.87 1021.99 1022.19 1022.27
1015.75 1015.75 1016.03 1016.43 1016.63 1016.71 1017.27 1017.39 1017.31 1017.27 1017.47 1017.55 1017.75 1017.79 1018.03 1018.07 1018.15 1018.35 1018.35 1018.39 1018.47 1018.71 1018.75 1018.79 1018.95 1019.31 1019.59 1019.79 1019.91 1019.91 1019.95 1020.03 1020.03 1019.95 1019.91 1019.87 1020.03 1020.19 1020.19 1020.23 1020.11 1020.23 1020.47 1020.39 1020.47 1020.63 1020.71 1020.99 1021.19 1021.59 1021.75 1021.63 1021.79 1021.75 1021.75 1021.91 1021.95 1021.91 1022.03 1022.39 1022.51 1022.55
1015.87 1015.91 1016.03 1016.31 1016.47 1016.71 1016.95 1017.19 1017.27 1017.31 1017.39 1017.51 1017.83 1018.03 1018.19 1018.19 1018.31 1018.39 1018.59 1018.39 1018.39 1018.63 1018.91 1018.95 1019.03 1019.11 1019.67 1020.07 1019.99 1019.79 1019.83 1019.95 1019.95 1019.83 1019.79 1019.95 1020.11 1020.19 1020.19 1020.27 1020.27 1020.39 1020.79 1020.75 1020.63 1020.87 1020.87 1021.39 1021.79 1021.95 1021.91 1021.91 1021.95 1021.99 1022.03 1022.07 1022.15 1022.19 1022.39 1022.55 1022.67 1022.75
1015.83 1016.15 1016.39 1016.79 1016.91 1017.07 1017.31 1017.47 1017.43 1017.47 1017.59 1017.71 1017.83 1017.95 1017.99 1018.07 1018.35 1018.87 1018.75 1018.31 1018.15 1018.39 1018.67 1018.79 1018.99 1019.27 1019.43 1020.19 1019.75 1019.71 1019.79 1019.87 1019.79 1019.79 1019.91 1020.07 1020.15 1020.03 1020.31 1020.51 1020.59 1020.47 1020.43 1020.87 1020.91 1021.23 1021.51 1021.75 1021.91 1022.11 1022.11 1022.11 1022.19 1022.31 1022.35 1022.27 1022.35 1022.51 1022.67 1022.79 1022.87 1022.79
1015.87 1016.03 1016.35 1016.91 1016.99 1016.95 1017.47 1017.55 1017.51 1017.59 1017.71 1017.67 1017.63 1017.47 1017.91 1018.15 1018.31 1018.35 1018.03 1017.91 1018.15 1018.39 1018.51 1018.71 1018.87 1018.99 1019.39 1019.67 1019.63 1019.63 1019.67 1019.71 1019.71 1019.79 1019.91 1020.03 1020.07 1019.95 1020.11 1020.39 1020.75 1020.63 1020.51 1020.67 1020.95 1021.39 1021.83 1021.79 1021.95 1021.99 1022.11 1022.23 1022.47 1022.63 1022.71 1022.47 1022.47 1022.63 1022.63 1022.79 1022.75 1022.79
1016.03 1016.07 1016.27 1016.83 1016.95 1016.95 1017.19 1017.51 1017.71 1017.63 1017.75 1017.91 1017.79 1017.51 1017.99 1018.11 1018.23 1017.83 1017.79 1018.15 1018.35 1018.51 1018.59 1018.59 1018.67 1018.91 1019.63 1019.83 1019.51 1019.55 1019.59 1019.67 1019.67 1019.71 1019.95 1020.07 1020.15 1020.23 1020.35 1020.43 1020.67 1020.83 1020.71 1020.55 1020.79 1021.47 1021.63 1021.67 1021.71 1021.87 1022.11 1022.35 1022.43 1022.55 1022.47 1022.35 1022.35 1022.43 1022.51 1022.59 1022.83 1022.91
1016.11 1016.11 1016.43 1016.87 1017.23 1017.55 1017.55 1017.75 1018.03 1018.03 1018.15 1018.15 1018.35 1017.67 1017.15 1017.31 1018.03 1018.11 1017.95 1018.43 1018.91 1018.91 1018.55 1018.75 1018.99 1019.15 1020.23 1019.71 1019.27 1019.39 1019.63 1019.67 1019.63 1019.71 1019.99 1020.19 1020.27 1020.35 1020.55 1020.63 1020.71 1020.87 1021.03 1020.99 1021.15 1022.07 1021.71 1021.47 1021.71 1021.99 1022.35 1022.39 1022.67 1022.83 1022.87 1022.79 1022.59 1022.59 1022.67 1022.75 1022.83 1022.75
1016.19 1016.35 1017.07 1017.23 1017.39 1017.39 1017.79 1018.11 1017.91 1017.83 1017.99 1018.19 1018.15 1017.43 1017.35 1017.23 1017.39 1017.31 1017.35 1017.43 1017.79 1018.55 1018.51 1018.79 1019.07 1019.55 1019.35 1019.19 1019.23 1019.35 1019.59 1019.71 1019.59 1019.59 1019.91 1020.15 1020.15 1020.27 1020.31 1020.39 1020.63 1020.71 1021.03 1021.31 1021.47 1021.91 1021.55 1021.31 1022.15 1022.87 1023.11 1023.71 1023.83 1023.71 1023.55 1023.31 1022.95 1022.95 1023.11 1023.03 1022.79 1022.91
1016.11 1016.55 1017.11 1017.07 1017.15 1017.27 1017.07 1017.19 1017.51 1017.43 1017.39 1017.63 1017.39 1017.51 1017.47 1017.47 1017.55 1017.51 1017.55 1017.63 1017.83 1018.23 1018.59 1018.79 1019.03 1018.95 1018.91 1019.03 1019.27 1019.43 1019.59 1019.67 1019.67 1019.63 1019.79 1019.95 1020.07 1020.23 1020.43 1020.55 1020.63 1020.87 1020.67 1021.15 1021.43 1021.19 1021.35 1021.51 1022.19 1022.79 1023.55 1024.47 1024.11 1023.91 1023.95 1023.87 1023.15 1023.03 1022.87 1022.83 1022.91 1023.15
1016.03 1016.63 1017.15 1016.83 1016.99 1017.27 1017.23 1017.19 1016.95 1017.07 1017.79 1016.87 1016.67 1016.79 1016.83 1017.15 1017.23 1017.51 1017.67 1017.79 1018.07 1018.11 1018.35 1018.51 1018.63 1018.75 1018.95 1018.99 1019.23 1019.43 1019.47 1019.59 1019.63 1019.67 1019.99 1020.19 1020.23 1020.39 1020.39 1020.55 1020.59 1020.71 1020.95 1020.79 1021.07 1021.11 1021.51 1021.39 1022.11 1022.19 1022.59 1023.43 1024.39 1024.75 1024.51 1023.83 1023.31 1023.19 1022.99 1022.95 1022.91 1023.11
1015.91 1016.51 1016.67 1016.63 1016.79 1016.91 1017.35 1017.39 1016.87 1016.83 1016.99 1016.55 1016.83 1016.87 1016.87 1017.15 1017.31 1017.43 1017.95 1018.03 1018.11 1018.23 1018.23 1018.35 1018.43 1018.63 1018.75 1018.95 1019.27 1019.39 1019.51 1019.63 1019.67 1019.67 1019.87 1020.19 1020.31 1020.35 1020.43 1020.43 1020.47 1020.51 1020.67 1021.23 1021.27 1021.63 1021.59 1021.43 1021.39 1022.11 1023.95 1023.63 1023.79 1023.75 1024.55 1024.39 1023.99 1023.55 1022.99 1023.03 1023.07 1023.23
1015.67 1016.15 1016.35 1016.75 1017.03 1017.19 1017.27 1017.15 1017.07 1017.07 1016.91 1016.91 1016.95 1017.23 1017.39 1017.63 1017.59 1017.59 1017.75 1018.03 1017.99 1018.03 1018.23 1018.47 1018.51 1018.47 1018.51 1018.87 1019.11 1019.27 1019.51 1019.59 1019.67 1019.75 1019.79 1019.91 1020.11 1020.19 1020.27 1020.19 1020.27 1020.51 1020.59 1021.03 1021.27 1021.47 1021.63 1021.19 1021.83 1021.71 1022.31 1023.35 1024.19 1024.15 1023.67 1023.79 1023.59 1024.07 1023.39 1023.39 1023.39 1023.35
1015.43 1015.79 1016.11 1016.23 1016.55 1016.91 1017.07 1017.03 1017.19 1017.47 1017.67 1017.51 1017.59 1017.63 1017.87 1017.95 1017.99 1017.95 1017.95 1017.87 1017.99 1018.11 1018.23 1018.47 1018.47 1018.47 1018.55 1018.87 1019.15 1019.27 1019.35 1019.47 1019.63 1019.83 1019.91 1019.83 1019.79 1019.91 1020.03 1019.91 1020.11 1020.27 1020.47 1020.47 1020.67 1021.47 1021.63 1021.71 1021.51 1021.87 1021.99 1021.95 1022.19 1023.11 1023.43 1023.19 1023.51 1024.67 1023.79 1023.51 1023.59 1023.59
1015.15 1015.47 1015.63 1015.95 1016.27 1016.51 1016.87 1016.91 1016.83 1016.79 1016.83 1016.99 1017.31 1017.35 1017.23 1017.35 1017.59 1017.63 1017.71 1018.11 1018.15 1018.23 1018.27 1018.51 1018.63 1018.63 1018.71 1018.87 1019.03 1019.27 1019.35 1019.43 1019.55 1019.75 1019.87 1019.91 1019.83 1019.83 1019.75 1019.51 1019.71 1020.07 1020.15 1020.47 1021.11 1021.99 1021.95 1021.87 1021.95 1021.99 1021.67 1021.47 1021.83 1022.03 1021.67 1022.51 1023.39 1023.87 1024.47 1024.27 1023.91 1024.11
1014.95 1015.19 1015.39 1015.71 1016.11 1016.11 1016.47 1016.51 1016.59 1016.51 1016.51 1016.75 1016.95 1017.31 1017.39 1017.55 1017.51 1017.75 1018.07 1018.27 1018.35 1018.51 1018.47 1018.51 1018.59 1018.63 1018.67 1018.75 1018.99 1019.27 1019.39 1019.51 1019.67 1019.67 1019.79 1019.83 1019.75 1019.67 1019.55 1019.43 1019.75 1019.91 1020.11 1020.23 1021.23 1021.95 1021.79 1021.99 1022.75 1022.87 1021.59 1021.51 1021.47 1021.27 1021.59 1021.51 1021.47 1022.35 1023.07 1024.31 1024.83 1024.27
1015.03 1015.23 1015.39 1015.71 1015.95 1016.03 1016.31 1016.27 1016.35 1016.39 1016.63 1016.51 1016.71 1017.03 1017.23 1017.51 1017.83 1017.95 1018.31 1018.35 1018.39 1018.39 1018.47 1018.47 1018.43 1018.51 1018.67 1018.71 1018.95 1019.15 1019.39 1019.51 1019.59 1019.59 1019.63 1019.51 1019.51 1019.51 1019.71 1019.83 1020.19 1020.31 1020.47 1020.47 1020.91 1021.11 1021.43 1021.67 1022.19 1021.67 1021.51 1021.55 1021.35 1021.35 1021.75 1021.51 1021.95 1022.43 1022.39 1023.59 1024.27 1024.63
1015.03 1015.19 1015.43 1015.67 1015.83 1015.99 1016.03 1016.07 1016.27 1016.35 1016.63 1016.79 1016.87 1017.07 1017.23 1017.67 1017.91 1017.95 1018.23 1018.31 1018.31 1018.39 1018.39 1018.47 1018.43 1018.43 1018.47 1018.51 1018.79 1018.99 1019.19 1019.39 1019.51 1019.55 1019.51 1019.39 1019.55 1019.75 1019.87 1019.99 1020.19 1020.35 1020.43 1020.55 1020.87 1021.11 1021.07 1021.11 1021.03 1021.47 1021.35 1021.95 1021.43 1021.51 1021.63 1021.87 1021.75 1021.59 1021.71 1022.15 1023.59 1024.07
1014.87 1015.15 1015.39 1015.63 1015.75 1015.91 1015.91 1015.99 1016.15 1016.35 1016.63 1016.87 1016.99 1017.15 1017.43 1017.71 1017.75 1017.95 1018.19 1018.31 1018.27 1018.23 1018.15 1018.27 1018.35 1018.47 1018.51 1018.55 1018.75 1018.95 1019.15 1019.31 1019.35 1019.47 1019.47 1019.43 1019.59 1019.63 1019.87 1020.03 1020.19 1020.39 1020.47 1020.59 1020.87 1020.99 1021.11 1021.03 1021.07 1021.11 1022.15 1021.83 1021.75 1021.51 1022.19 1022.95 1022.07 1021.75 1021.75 1022.51 1023.23 1023.79
1014.95 1015.15 1015.39 1015.55 1015.63 1015.71 1015.83 1015.99 1016.03 1016.27 1016.55 1016.67 1016.87 1017.11 1017.35 1017.55 1017.55 1017.67 1017.79 1018.03 1017.99 1018.11 1018.19 1018.27 1018.39 1018.51 1018.63 1018.63 1018.75 1018.87 1019.03 1019.23 1019.35 1019.47 1019.43 1019.27 1019.35 1019.43 1019.67 1019.83 1020.07 1020.35 1020.47 1020.63 1020.75 1020.95 1021.07 1021.27 1021.31 1021.15 1021.35 1022.39 1022.51 1022.39 1022.59 1022.87 1022.83 1021.71 1021.75 1022.11 1022.79 1023.47
1014.95 1015.11 1015.35 1015.47 1015.59 1015.59 1015.79 1015.91 1015.99 1016.15 1016.31 1016.47 1016.71 1016.83 1017.07 1017.23 1017.27 1017.47 1017.67 1017.79 1017.99 1018.15 1018.23 1018.43 1018.51 1018.59 1018.71 1018.75 1018.71 1018.91 1018.99 1019.19 1019.35 1019.39 1019.39 1019.35 1019.43 1019.35 1019.59 1019.79 1020.07 1020.31 1020.47 1020.67 1020.75 1020.87 1021.11 1021.27 1021.43 1021.55 1021.95 1022.23 1022.35 1022.19 1022.75 1022.47 1022.95 1022.83 1021.55 1022.07 1022.35 1023.35
1014.87 1014.95 1015.11 1015.27 1015.35 1015.55 1015.67 1015.75 1015.83 1015.99 1016.19 1016.39 1016.67 1016.71 1016.95 1017.11 1017.23 1017.31 1017.51 1017.83 1017.91 1018.03 1018.19 1018.35 1018.51 1018.63 1018.63 1018.71 1018.75 1018.83 1018.95 1019.03 1019.07 1019.23 1019.35 1019.39 1019.47 1019.51 1019.63 1019.79 1020.15 1020.39 1020.47 1020.59 1020.67 1020.95 1021.07 1021.31 1021.47 1021.71 1022.15 1022.23 1022.27 1022.11 1021.95 1021.83 1022.03 1021.59 1021.79 1022.03 1022.51 1023.03
1014.67 1014.75 1014.83 1015.03 1015.15 1015.35 1015.51 1015.71 1015.83 1015.91 1016.15 1016.31 1016.59 1016.79 1016.87 1017.03 1017.27 1017.43 1017.59 1017.83 1017.91 1017.99 1018.15 1018.31 1018.47 1018.63 1018.67 1018.79 1018.87 1018.91 1019.03 1019.11 1019.07 1019.15 1019.27 1019.43 1019.51 1019.63 1019.87 1019.79 1020.19 1020.43 1020.43 1020.39 1020.63 1020.83 1020.99 1021.23 1021.55 1021.87 1022.47 1022.27 1022.55 1022.23 1022.19 1021.87 1022.11 1020.99 1020.99 1021.43 1021.91 1022.71
1014.07 1014.35 1014.67 1014.87 1014.99 1015.19 1015.43 1015.63 1015.79 1015.99 1016.19 1016.35 1016.55 1016.71 1016.91 1017.11 1017.35 1017.51 1017.75 1017.91 1018.11 1018.15 1018.15 1018.31 1018.55 1018.75 1018.87 1018.87 1018.99 1018.99 1019.07 1019.07 1019.07 1019.15 1019.27 1019.39 1019.47 1019.59 1019.83 1019.87 1020.15 1020.35 1020.51 1020.23 1020.51 1020.83 1020.87 1021.19 1021.51 1021.71 1022.11 1022.47 1022.27 1022.07 1021.95 1021.91 1021.39 1020.87 1020.83 1021.23 1021.75 1022.27
1013.87 1014.11 1014.35 1014.55 1014.75 1015.07 1015.31 1015.59 1015.83 1015.95 1016.19 1016.43 1016.63 1016.91 1017.15 1017.39 1017.51 1017.67 1017.87 1018.03 1018.23 1018.39 1018.51 1018.59 1018.83 1018.91 1019.03 1019.03 1019.03 1018.99 1018.95 1019.07 1019.23 1019.23 1019.31 1019.35 1019.43 1019.51 1019.63 1019.83 1020.19 1020.43 1020.63 1020.27 1020.35 1020.43 1020.87 1021.03 1021.27 1021.19 1021.35 1021.43 1022.39 1022.11 1021.79 1021.67 1020.83 1020.91 1021.35 1021.67 1021.75 1022.03
Wind_Speed
12 13 12 12 11 11 11 11 10 10 10 9 10 11 11 13 13 12 12 11 11 10 11 11 11 11 14 11 13 13 14 14 12 12 11 11 10 8 7 6 5 3 5 7 9 10 11 10 10 9 9 8 10 5 6 5 6 6 7 8 9 9
11 13 12 10 9 9 10 12 12 11 11 10 10 10 10 10 11 10 10 11 8 7 7 7 5 11 9 13 13 14 14 14 13 12 11 10 9 8 7 7 6 5 4 7 13 8 9 10 10 9 8 9 9 6 5 5 7 7 8 8 8 9
12 12 13 11 9 9 12 10 11 11 10 11 11 9 10 8 9 9 10 9 7 6 6 9 7 7 9 10 12 13 13 13 13 13 11 10 7 5 5 6 5 5 3 3 7 7 7 8 7 9 7 7 4 5 6 5 5 7 7 8 8 9
12 12 11 8 9 9 10 9 9 10 9 9 9 9 5 9 9 10 8 6 6 6 6 3 9 10 11 9 12 13 13 13 13 11 12 9 8 5 4 5 5 6 4 5 5 5 7 7 7 7 5 4 5 6 5 4 5 7 7 8 9 9
10 11 10 8 9 9 9 8 8 9 9 8 7 3 6 8 7 9 7 5 7 8 9 7 7 6 4 8 9 9 9 7 7 7 8 6 6 6 7 7 5 5 5 5 5 6 5 6 6 5 4 5 6 5 5 5 6 5 7 7 8 5
10 10 9 8 8 8 8 8 8 8 8 9 7 7 6 6 3 7 6 6 6 5 6 9 8 11 9 7 8 7 7 6 6 6 5 4 5 7 6 6 7 7 5 5 4 5 5 5 6 5 5 5 5 5 5 5 6 5 6 7 7 8
9 9 10 8 6 7 7 7 7 8 8 7 8 6 9 5 6 7 5 5 4 5 5 7 8 7 7 6 6 6 6 5 6 6 5 5 6 6 6 6 6 5 4 5 5 5 5 6 5 6 6 6 5 5 5 5 5 6 6 7 9 8
10 10 9 8 9 8 7 7 6 5 7 5 4 6 2 5 7 5 7 5 9 6 3 7 7 6 6 5 6 6 5 5 4 4 5 5 6 6 5 5 6 6 7 6 6 6 6 6 6 5 6 6 5 5 4 5 5 5 5 6 8 9
10 11 9 8 9 8 7 6 6 7 6 6 4 2 5 3 2 7 10 12 7 6 6 6 6 6 6 5 6 6 5 4 4 4 5 4 4 4 4 5 6 7 6 5 5 6 6 6 5 5 5 6 5 6 6 5 5 6 6 6 6 10
11 10 9 8 8 7 7 6 6 6 5 4 2 1 1 2 3 5 2 5 1 5 6 6 6 6 6 6 6 5 4 4 4 4 3 4 3 4 4 5 6 6 6 6 6 6 6 7 6 5 5 5 5 5 5 5 4 5 6 6 7 9
10 9 9 9 7 6 6 5 6 5 5 5 4 4 3 2 2 4 2 8 6 6 6 6 5 5 6 6 6 5 5 4 4 4 4 4 3 3 4 5 5 5 6 6 5 6 6 6 6 6 5 5 5 5 5 4 4 4 5 6 7 7
10 9 9 10 8 7 7 7 6 7 5 5 6 3 4 2 4 2 5 8 3 5 5 5 4 4 6 6 6 6 6 5 3 3 3 4 3 3 3 3 3 3 3 4 5 5 5 6 6 6 6 5 5 5 5 5 4 4 4 6 6 6
9 9 9 10 7 6 5 6 7 6 6 6 5 4 3 1 2 3 3 5 4 5 5 4 4 4 5 5 5 6 5 5 5 3 2 3 4 3 3 4 4 4 4 5 5 5 5 5 4 5 5 5 4 5 4 4 4 4 5 5 5 5
9 9 10 6 6 6 6 5 4 6 7 7 5 4 3 2 2 4 6 3 5 7 8 6 5 5 4 5 5 6 5 5 4 4 4 4 4 3 3 4 5 5 5 5 6 6 6 6 5 5 5 4 4 4 3 4 4 4 4 4 4 4
8 10 9 8 7 6 6 6 7 8 8 8 6 5 4 2 3 3 3 5 5 6 6 6 6 5 5 5 5 5 6 5 4 5 4 3 2 3 4 4 4 5 5 5 6 6 6 5 5 5 5 4 5 4 4 4 4 5 5 4 3 4
10 10 10 9 6 6 7 5 5 6 6 7 6 5 4 3 4 3 6 5 7 7 7 7 6 6 3 1 5 5 5 4 5 4 3 3 4 4 4 4 4 4 6 5 6 6 4 5 5 5 4 4 4 4 4 5 4 4 4 3 4 2
11 9 9 6 4 4 5 7 7 7 6 6 6 6 6 4 5 7 8 7 7 7 7 7 7 5 6 7 4 5 5 5 4 3 4 3 4 4 4 4 4 5 4 6 7 7 6 5 5 6 5 6 5 4 4 4 5 5 4 4 4 4
10 10 10 9 6 6 6 5 5 5 6 6 6 7 5 3 4 6 7 6 6 7 6 7 8 6 4 4 4 5 5 5 4 3 3 4 4 4 5 4 5 4 4 5 6 7 7 6 6 7 6 6 6 5 5 5 6 5 5 5 4 4
9 9 11 11 10 7 7 6 5 4 6 5 3 5 9 10 9 6 6 3 6 5 5 6 6 6 3 5 5 5 5 5 4 4 4 4 5 4 4 4 5 5 4 4 6 6 6 7 7 6 7 7 7 7 6 5 5 5 5 5 5 4
9 8 9 10 8 7 6 5 5 5 5 4 4 7 6 6 6 5 7 9 8 4 6 5 3 5 7 7 5 5 5 5 4 3 4 5 5 4 5 6 6 6 6 5 7 4 4 7 7 8 7 6 6 4 5 3 5 5 4 4 5 4
9 9 5 7 7 9 8 6 6 8 9 7 9 6 6 3 4 4 4 5 6 7 5 5 4 5 7 5 5 5 5 5 4 4 4 4 5 5 5 5 5 6 7 7 7 9 8 8 9 6 6 4 7 4 2 1 5 5 4 4 3 4
10 10 8 8 8 7 8 8 8 8 5 9 8 7 6 5 4 4 4 4 4 6 6 6 7 7 5 5 5 5 5 5 4 4 3 4 5 5 6 5 6 6 6 7 7 8 8 9 8 9 9 7 6 6 6 3 4 6 6 5 4 5
9 10 9 8 9 8 4 3 6 6 6 6 7 6 6 6 6 6 4 4 4 4 6 6 6 5 4 5 5 4 5 4 4 4 4 4 5 6 6 7 7 6 7 7 7 8 9 5 7 7 7 8 7 6 1 5 4 4 5 5 5 6
9 10 12 11 8 5 6 8 5 5 6 5 6 6 5 5 5 6 6 4 5 5 5 5 6 6 5 5 5 5 5 4 4 4 4 5 6 6 6 6 7 7 7 8 7 8 7 5 7 10 7 3 6 4 8 6 6 5 5 6 5 6
10 12 12 12 10 7 7 7 5 5 6 5 5 6 5 5 5 5 5 5 5 5 5 4 4 5 5 5 6 6 5 5 5 5 4 5 5 6 7 7 7 7 8 7 8 8 10 6 7 1 6 5 2 4 4 8 8 6 4 5 6 6
10 11 12 13 12 10 9 8 8 8 8 8 7 7 7 7 6 6 6 4 5 5 5 5 5 5 5 5 5 5 6 6 6 5 4 4 5 6 7 7 7 7 8 7 7 7 7 6 6 5 3 4 2 3 8 10 8 7 4 5 6 6
11 10 11 12 13 10 10 9 10 10 10 8 7 6 5 6 6 5 4 5 5 4 4 5 4 5 5 5 6 5 6 6 6 6 5 4 5 6 6 7 7 7 6 8 7 4 6 8 3 3 5 1 5 6 8 11 7 9 9 5 5 5
9 10 9 10 12 11 8 9 9 9 8 8 7 7 7 6 5 5 5 6 5 5 5 5 5 6 6 6 6 6 6 6 6 6 6 6 5 6 6 5 5 6 4 3 9 9 8 5 7 6 5 4 3 6 9 8 6 8 8 9 8 6
10 10 9 12 12 10 9 9 8 7 7 6 6 6 6 6 5 5 7 6 6 5 5 5 5 5 6 6 7 7 7 6 6 6 6 6 6 6 6 6 6 5 5 4 3 5 6 9 9 7 7 4 4 6 9 6 8 7 7 8 8 9
12 9 9 10 9 10 9 8 8 7 7 6 6 7 7 7 7 7 7 6 6 6 6 6 5 5 4 6 6 6 6 6 6 6 6 5 5 5 5 5 6 5 5 6 4 5 6 5 7 4 4 3 6 6 7 5 6 6 6 7 9 9
10 8 9 10 11 11 10 9 8 8 8 8 9 8 8 8 7 7 7 6 6 6 5 6 6 5 5 5 6 7 6 6 6 5 5 6 6 6 5 5 5 5 6 5 4 6 4 6 5 4 4 3 2 2 4 6 6 6 6 7 7 9
11 10 11 11 12 12 9 9 8 9 10 9 9 8 9 9 9 9 8 8 6 5 5 5 5 5 5 5 5 5 6 7 6 6 6 5 5 5 5 5 5 5 5 5 4 5 5 5 6 5 7 3 2 1 4 1 7 3 6 6 7 8
11 12 12 12 12 12 10 9 9 10 10 8 9 9 8 8 8 8 7 7 7 6 6 6 5 5 6 6 5 5 6 6 6 5 5 5 5 5 5 5 5 5 5 6 5 5 5 5 4 3 4 0 3 4 3 3 5 8 3 4 7 8
13 12 13 13 12 12 11 10 9 9 9 8 8 8 7 7 7 6 6 6 6 5 5 5 6 5 6 5 5 4 4 4 5 7 7 6 5 5 5 5 4 5 5 5 4 5 5 4 3 2 2 3 2 2 2 3 6 6 6 6 7 7
14 14 13 13 12 13 11 10 9 8 8 7 7 6 6 6 6 5 5 6 5 5 4 5 5 4 5 4 4 4 4 5 5 6 7 6 6 6 5 5 5 5 5 5 6 5 5 5 4 5 7 6 3 3 4 4 7 5 6 5 6 7
16 15 14 14 13 12 10 9 9 9 8 7 6 6 5 5 5 5 5 5 4 3 3 4 4 5 4 4 4 4 5 5 5 6 7 8 8 7 7 6 5 5 5 4 5 7 5 5 5 6 7 8 4 5 6 5 7 5 5 5 6 7
16 15 15 15 13 11 10 10 10 9 8 8 8 7 6 7 6 5 5 3 4 3 3 3 3 3 4 3 4 4 5 6 6 6 6 6 6 6 7 6 5 6 4 5 6 6 5 4 5 7 7 8 8 8 6 7 6 6 5 3 5 6
Wind_Direction
164 159 155 150 152 155 150 148 149 141 146 148 148 150 147 154 155 154 156 151 158 159 153 150 151 138 135 126 120 127 125 125 125 129 127 125 126 133 127 124 110 84 113 123 131 124 118 121 123 132 129 175 200 216 78 99 93 99 99 99 94 96
163 164 160 153 152 154 153 164 163 161 164 159 155 151 160 167 170 162 165 157 165 157 151 119 124 138 131 127 133 128 124 121 123 126 125 130 129 129 122 117 111 97 111 133 144 149 137 125 129 135 160 190 219 88 101 96 96 93 92 90 94 110
163 165 160 152 152 154 159 170 164 167 163 169 158 160 164 170 170 163 169 158 151 156 125 134 183 143 122 131 124 122 117 120 122 121 127 126 122 114 116 111 105 108 104 227 188 155 156 153 144 146 180 215 93 97 93 100 105 89 84 90 94 119
168 165 162 155 156 158 165 170 170 165 164 163 162 167 186 196 169 171 149 151 151 131 128 162 107 113 126 131 123 119 117 118 119 122 126 134 126 125 121 112 114 139 177 194 159 161 164 153 149 166 165 134 109 115 126 112 90 92 98 101 100 120
168 166 164 158 159 162 163 176 168 168 169 158 170 202 174 209 173 160 134 137 158 158 153 136 139 137 175 147 141 139 138 136 140 134 159 147 157 157 190 160 158 198 179 189 177 164 161 152 155 153 138 120 119 119 102 93 91 93 97 103 100 120
166 168 166 164 169 157 172 174 171 172 172 164 160 194 177 203 246 151 161 156 157 170 143 137 165 168 172 137 144 147 136 136 138 136 158 149 162 181 192 175 177 178 176 197 175 162 162 157 158 152 142 120 120 131 116 107 106 111 104 108 113 100
161 169 171 170 168 166 183 174 171 173 177 180 168 186 173 193 188 88 94 152 172 163 174 150 150 131 130 141 135 139 129 131 142 143 154 161 173 184 193 186 178 172 178 202 179 163 169 160 159 151 140 135 126 120 120 113 116 111 118 112 110 122
172 171 173 173 180 178 180 176 168 154 205 143 173 176 144 192 150 145 163 179 179 174 188 139 135 134 134 138 131 118 121 131 130 138 156 171 171 180 181 171 156 172 189 192 170 178 165 156 157 152 136 125 127 115 105 105 106 114 117 117 122 117
168 173 169 176 184 184 174 178 166 172 183 127 178 203 173 169 186 160 172 169 157 144 166 145 139 139 132 120 119 121 129 126 129 157 167 168 160 150 159 165 165 181 192 175 169 174 164 154 157 149 133 131 128 116 112 113 120 120 111 109 114 108
171 173 170 181 188 185 178 176 168 169 118 123 137 206 8 122 160 139 145 30 68 129 132 130 137 134 125 123 123 123 129 141 150 163 158 151 147 158 156 163 181 185 172 179 171 162 163 155 152 145 135 126 119 113 113 113 117 110 111 115 109 110
164 164 173 188 183 183 168 169 163 128 130 152 146 88 109 90 122 105 182 141 239 149 139 129 132 129 127 131 132 139 144 151 159 158 150 138 146 166 174 166 179 181 170 178 160 153 167 156 156 148 139 137 120 119 116 110 106 106 109 113 113 118
162 165 179 189 183 184 171 170 154 156 156 127 105 150 138 124 148 148 171 148 169 66 77 96 106 126 133 139 150 151 151 156 150 165 155 138 152 168 171 147 149 166 169 149 149 158 151 158 168 145 146 117 121 126 117 114 112 105 110 108 115 117
151 166 187 181 170 172 164 158 166 149 132 131 141 129 132 174 88 185 122 103 117 105 91 95 122 135 144 152 149 147 151 158 155 158 150 149 149 162 154 149 150 160 163 158 158 145 158 150 168 136 126 126 126 114 115 116 115 122 120 130 121 126
141 166 179 161 151 148 151 143 159 148 143 143 136 141 170 141 209 162 150 152 133 129 128 130 132 140 153 148 155 156 157 157 151 166 169 170 169 152 148 156 154 166 150 162 156 154 160 164 148 138 123 120 110 103 116 116 108 99 103 94 89 118
149 161 169 158 157 156 132 155 172 163 156 154 150 156 144 160 195 198 116 152 137 135 134 135 138 145 154 164 169 162 160 150 165 181 185 167 156 156 167 169 173 154 158 158 156 160 167 146 129 123 130 132 117 119 112 111 127 140 121 98 105 88
156 169 188 170 160 154 152 163 162 158 154 152 150 157 150 183 183 221 174 151 138 134 148 154 146 133 121 12 205 164 151 158 178 194 181 160 170 175 157 174 163 159 164 159 153 157 146 132 143 136 126 123 118 118 129 129 133 118 103 141 113 126
161 155 160 130 131 151 126 159 174 165 151 157 164 172 182 169 179 192 184 172 142 140 153 161 152 156 136 193 197 160 150 161 182 189 176 175 182 172 161 168 165 167 178 157 154 148 143 143 135 134 140 132 126 126 120 132 135 123 138 134 140 138
146 162 157 137 153 178 163 176 169 167 160 180 185 170 158 189 177 219 163 148 145 143 159 163 155 146 159 196 176 158 157 161 177 180 180 178 183 170 164 170 157 164 164 169 148 152 149 147 147 149 142 132 132 127 144 157 131 149 157 139 129 109
127 160 160 139 175 180 176 167 166 181 176 182 223 190 173 185 181 204 135 133 134 143 154 159 147 128 132 198 175 161 153 165 182 174 175 188 171 170 156 167 162 153 155 169 153 137 152 153 156 143 140 139 145 148 150 137 145 148 133 133 111 114
143 167 158 144 154 175 186 154 172 181 179 178 228 214 189 155 151 197 162 166 153 185 147 147 141 117 185 204 160 159 152 172 185 178 184 188 174 164 167 161 165 152 152 140 125 141 184 157 141 134 138 135 95 96 108 131 144 125 114 116 130 139
140 147 127 154 166 175 168 175 210 195 189 171 206 181 183 153 168 146 160 150 145 148 154 152 138 188 195 160 159 151 159 176 184 189 182 182 177 157 163 167 154 160 157 155 148 167 173 150 137 121 97 76 128 136 112 153 116 120 123 132 140 117
142 137 137 177 180 188 187 190 184 194 190 177 174 180 175 159 170 147 157 143 142 150 173 175 189 188 164 168 150 158 166 172 189 181 176 166 166 157 156 165 165 163 173 161 161 159 148 155 154 147 142 145 80 104 118 190 192 137 153 144 126 123
143 137 143 182 183 189 199 251 205 159 210 181 170 177 170 164 166 155 151 150 158 173 170 172 174 168 168 166 161 169 172 170 193 171 169 165 166 163 172 171 179 171 170 167 161 159 159 177 147 139 119 128 135 130 28 135 103 117 115 122 132 124
146 133 158 167 179 172 194 209 202 168 188 182 165 164 157 152 168 158 157 160 163 179 175 175 172 172 181 168 169 179 171 181 186 178 178 177 172 174 172 178 183 177 174 167 168 161 187 183 161 152 147 170 142 139 142 147 137 120 115 115 122 123
150 151 163 162 182 198 189 182 170 167 180 165 152 161 163 161 171 171 160 173 167 174 173 172 184 193 187 166 176 178 179 182 186 186 191 190 181 176 178 186 180 180 181 176 173 163 187 178 144 251 123 132 108 171 147 144 132 107 117 116 110 113
153 158 164 169 169 185 179 180 168 170 176 175 171 172 177 170 176 178 179 161 166 173 179 177 188 192 171 169 166 174 189 185 181 184 195 197 191 179 188 191 181 184 192 189 178 164 170 184 168 170 180 235 102 176 163 151 141 130 117 111 113 106
156 158 162 168 174 191 178 184 178 179 177 177 174 171 169 168 173 165 153 167 162 170 177 172 179 176 172 175 170 174 181 190 176 186 187 206 199 191 191 197 177 193 188 193 117 147 185 178 169 233 190 173 141 183 178 162 158 138 142 126 115 113
154 162 163 163 177 187 179 178 184 184 180 182 173 162 160 157 152 149 157 163 162 167 172 179 184 182 175 173 171 166 177 181 181 186 187 201 197 194 197 194 173 200 182 208 161 175 184 160 173 212 213 179 181 166 168 209 146 171 144 149 141 113
150 155 156 161 177 186 188 182 182 186 178 173 161 154 147 146 155 160 157 161 172 167 172 179 189 185 178 177 170 167 173 172 186 177 195 196 196 192 197 180 172 182 186 178 117 175 166 186 199 185 185 183 174 173 169 193 149 202 161 145 141 140
154 156 157 162 178 182 186 179 185 185 174 163 161 155 160 158 161 166 165 166 168 173 172 172 180 183 178 179 167 159 172 174 176 175 195 187 185 188 187 178 174 180 181 185 148 169 193 196 207 190 186 220 186 169 174 166 181 184 147 150 151 152
163 154 157 164 174 177 181 184 184 176 176 164 162 162 160 163 158 162 161 164 176 170 169 165 166 165 174 170 165 166 166 172 174 173 196 177 192 187 175 175 168 167 183 191 172 178 197 219 219 195 199 222 322 195 120 205 175 187 157 143 143 147
162 157 160 167 180 179 176 182 182 182 179 173 167 169 167 164 166 168 166 169 169 167 163 161 163 158 162 163 164 169 166 168 171 180 189 192 188 187 184 179 174 177 182 195 196 190 204 217 225 226 201 103 236 87 91 64 296 239 167 141 148 148
158 159 163 171 182 177 178 180 184 181 179 174 176 176 171 168 171 166 167 168 163 164 157 159 161 158 153 162 167 164 172 176 165 175 188 191 193 190 186 193 176 187 181 193 197 199 204 215 217 250 9 72 174 191 158 188 219 252 134 147 143 153
162 163 166 173 179 179 181 180 180 180 177 176 182 179 172 171 167 164 161 160 164 158 159 156 156 160 152 165 169 159 167 175 171 166 180 183 184 183 186 194 179 196 190 195 204 204 213 210 208 179 106 205 214 204 238 215 248 188 155 165 150 160
164 168 168 173 179 180 179 178 178 179 176 180 179 177 174 164 162 154 147 152 151 152 151 149 151 141 146 160 163 170 171 179 174 170 164 173 174 171 181 189 173 191 193 199 198 199 205 204 198 189 175 212 177 235 193 229 247 203 162 166 150 158
169 166 170 176 180 180 177 175 179 176 176 175 175 172 161 151 143 136 134 140 134 140 131 134 126 141 143 160 165 176 181 178 170 167 168 170 179 177 174 176 182 186 203 195 202 198 199 191 204 201 196 180 206 194 189 227 223 182 167 156 145 155
170 171 173 177 177 180 175 173 175 175 175 173 166 161 149 136 131 129 129 128 134 121 112 138 138 143 149 164 162 179 177 167 173 169 168 172 177 175 174 177 172 173 207 213 209 197 185 185 209 197 209 169 181 189 181 212 206 151 127 172 154 163